TimeMDT,TemperatureF,Dew PointF,Humidity,Sea Level PressureIn,VisibilityMPH,Wind Direction,Wind SpeedMPH,Gust SpeedMPH,PrecipitationIn,Events,Conditions,WindDirDegrees,DateUTC
12:53 AM,45.0,33.1,63,30.15,5.0,North,5.8,-,N/A,,Haze,10,2012-09-21 06:53:00
1:53 AM,45.0,33.1,63,30.15,5.0,ENE,3.5,-,N/A,,Haze,70,2012-09-21 07:53:00
2:53 AM,45.0,34.0,65,30.16,5.0,NE,3.5,-,N/A,,Haze,40,2012-09-21 08:53:00
3:53 AM,42.1,35.1,76,30.16,5.0,NE,3.5,-,N/A,,Haze,50,2012-09-21 09:53:00
4:53 AM,41.0,33.1,73,30.16,5.0,NNE,4.6,-,N/A,,Haze,30,2012-09-21 10:53:00
5:53 AM,39.9,32.0,73,30.17,5.0,NNE,3.5,-,N/A,,Haze,30,2012-09-21 11:53:00
6:53 AM,39.9,30.9,70,30.19,5.0,Calm,Calm,-,N/A,,Haze,0,2012-09-21 12:53:00
7:53 AM,39.9,32.0,73,30.21,4.0,Calm,Calm,-,N/A,,Haze,0,2012-09-21 13:53:00
8:29 AM,42.8,32.0,66,30.26,4.0,ENE,3.5,-,N/A,,Haze,60,2012-09-21 14:29:00
8:53 AM,44.1,30.9,60,30.22,4.0,NE,3.5,-,N/A,,Haze,50,2012-09-21 14:53:00
9:53 AM,50.0,34.0,54,30.23,4.0,NE,3.5,-,N/A,,Haze,40,2012-09-21 15:53:00
10:53 AM,57.0,37.0,47,30.21,4.0,Calm,Calm,-,N/A,,Haze,0,2012-09-21 16:53:00
11:53 AM,64.0,36.0,35,30.19,-9999.0,Calm,Calm,-,N/A,,Overcast,0,2012-09-21 17:53:00
12:53 PM,71.1,35.1,27,30.15,-9999.0,WNW,3.5,-,N/A,,Overcast,300,2012-09-21 18:53:00
1:53 PM,73.0,27.0,18,30.13,4.0,Calm,Calm,-,N/A,,Haze,0,2012-09-21 19:53:00
2:53 PM,75.9,26.1,16,30.09,5.0,WSW,4.6,-,N/A,,Haze,250,2012-09-21 20:53:00
3:34 PM,77.0,28.4,17,30.16,5.0,WSW,4.6,-,N/A,,Haze,250,2012-09-21 21:34:00
3:53 PM,77.0,28.0,17,30.08,5.0,SW,8.1,-,N/A,,Haze,230,2012-09-21 21:53:00
4:53 PM,77.0,30.0,18,30.07,6.0,WSW,5.8,-,N/A,,Haze,240,2012-09-21 22:53:00
5:10 PM,77.0,30.2,18,30.15,6.0,WSW,5.8,-,N/A,,Haze,250,2012-09-21 23:10:00
5:38 PM,77.0,30.2,18,30.15,6.0,SW,5.8,-,N/A,,Haze,230,2012-09-21 23:38:00
5:53 PM,75.9,28.9,18,30.07,6.0,SW,5.8,-,N/A,,Haze,220,2012-09-21 23:53:00
6:53 PM,71.1,37.9,30,30.08,6.0,Calm,Calm,-,N/A,,Haze,0,2012-09-22 00:53:00
7:53 PM,64.0,39.0,40,30.09,7.0,Calm,Calm,-,N/A,,Overcast,0,2012-09-22 01:53:00
8:53 PM,57.0,42.1,57,30.10,6.0,Calm,Calm,-,N/A,,Haze,0,2012-09-22 02:53:00
9:53 PM,52.0,37.9,59,30.11,6.0,NNE,4.6,-,N/A,,Haze,30,2012-09-22 03:53:00
10:53 PM,51.1,37.0,59,30.11,6.0,Calm,Calm,-,N/A,,Haze,0,2012-09-22 04:53:00
11:53 PM,48.0,36.0,63,30.10,6.0,NE,5.8,-,N/A,,Haze,40,2012-09-22 05:53:00